GFSMW_prec_precacc6_078.txt.gz
Total_Precipitation_Accumulation
0.58 0.71 0.36 0.26 0.29 0.17 0.05 0.03 0.03 0.02 0.02 0.04 0.07 0.08 0.05 0.02 0.02 0.01 0.06 0.12 0.18 0.15 0.13 0.07 0.01 0.00 0.00 0.00 0.00 0.00 0.00 0.00 0.00 0.01 0.00 0.00 0.00 0.00 0.00 0.00 0.00 0.00 0.00
0.31 0.50 0.86 0.37 0.37 0.73 0.58 0.37 0.22 0.18 0.14 0.12 0.07 0.04 0.04 0.04 0.01 0.02 0.05 0.15 0.22 0.24 0.18 0.14 0.13 0.06 0.01 0.00 0.00 0.01 0.03 0.03 0.03 0.01 0.00 0.00 0.00 0.00 0.00 0.00 0.00 0.00 0.00
0.09 0.16 0.35 0.19 0.25 0.59 0.66 0.39 0.23 0.13 0.19 0.10 0.29 0.24 0.21 0.17 0.23 0.23 0.19 0.24 0.20 0.20 0.31 0.35 0.31 0.25 0.15 0.12 0.16 0.19 0.19 0.13 0.07 0.01 0.01 0.00 0.00 0.00 0.00 0.00 0.00 0.00 0.00
0.03 0.03 0.03 0.04 0.03 0.05 0.12 0.27 0.37 0.32 0.33 0.36 0.53 0.86 1.16 1.13 0.91 0.82 0.69 0.56 0.48 0.51 0.68 0.82 0.85 0.74 0.47 0.36 0.31 0.28 0.20 0.16 0.11 0.06 0.02 0.01 0.00 0.00 0.00 0.00 0.00 0.00 0.00
0.01 0.00 0.00 0.00 0.00 0.00 0.00 0.05 0.07 0.12 0.29 0.41 0.35 0.45 0.61 0.66 0.58 0.46 0.42 0.46 0.48 0.44 0.48 0.64 0.70 0.61 0.53 0.58 0.49 0.20 0.07 0.03 0.02 0.01 0.00 0.00 0.00 0.00 0.00 0.00 0.00 0.00 0.00
0.01 0.00 0.00 0.00 0.00 0.00 0.00 0.00 0.00 0.01 0.08 0.11 0.13 0.27 0.40 0.42 0.39 0.35 0.32 0.31 0.24 0.25 0.31 0.34 0.38 0.39 0.31 0.26 0.32 0.31 0.16 0.04 0.01 0.01 0.00 0.00 0.00 0.00 0.00 0.00 0.00 0.00 0.00
0.00 0.00 0.00 0.00 0.00 0.00 0.00 0.00 0.00 0.00 0.00 0.01 0.04 0.06 0.09 0.10 0.10 0.10 0.10 0.12 0.15 0.14 0.15 0.17 0.22 0.24 0.24 0.21 0.19 0.18 0.19 0.12 0.04 0.01 0.00 0.00 0.00 0.00 0.00 0.00 0.00 0.00 0.00
0.00 0.00 0.00 0.00 0.00 0.00 0.00 0.00 0.00 0.00 0.00 0.00 0.00 0.00 0.01 0.01 0.02 0.03 0.05 0.04 0.07 0.10 0.13 0.20 0.31 0.34 0.33 0.34 0.30 0.18 0.09 0.07 0.06 0.02 0.00 0.00 0.00 0.00 0.00 0.00 0.00 0.00 0.00
0.00 0.00 0.00 0.00 0.00 0.00 0.00 0.00 0.00 0.00 0.00 0.00 0.00 0.00 0.00 0.00 0.00 0.00 0.00 0.00 0.02 0.08 0.11 0.10 0.10 0.10 0.08 0.08 0.08 0.08 0.06 0.04 0.02 0.00 0.00 0.00 0.00 0.00 0.00 0.00 0.01 0.01 0.01
0.00 0.00 0.00 0.00 0.00 0.00 0.00 0.00 0.00 0.00 0.00 0.00 0.00 0.00 0.00 0.00 0.00 0.00 0.00 0.00 0.00 0.01 0.01 0.01 0.00 0.00 0.00 0.00 0.00 0.00 0.00 0.00 0.00 0.00 0.00 0.00 0.00 0.00 0.00 0.00 0.00 0.01 0.02
0.00 0.00 0.00 0.00 0.00 0.00 0.00 0.00 0.00 0.00 0.00 0.00 0.00 0.00 0.00 0.00 0.00 0.00 0.00 0.00 0.00 0.00 0.00 0.00 0.00 0.00 0.00 0.00 0.00 0.00 0.00 0.00 0.00 0.00 0.00 0.00 0.00 0.00 0.00 0.00 0.00 0.00 0.00
0.00 0.00 0.00 0.00 0.00 0.00 0.00 0.00 0.00 0.00 0.00 0.00 0.00 0.00 0.00 0.00 0.00 0.00 0.00 0.00 0.00 0.00 0.00 0.01 0.00 0.00 0.00 0.00 0.00 0.00 0.00 0.00 0.00 0.00 0.00 0.00 0.00 0.00 0.00 0.00 0.00 0.00 0.00
0.00 0.00 0.00 0.00 0.00 0.00 0.00 0.00 0.00 0.00 0.00 0.00 0.00 0.00 0.00 0.00 0.00 0.00 0.00 0.00 0.00 0.00 0.00 0.00 0.00 0.00 0.00 0.00 0.00 0.00 0.00 0.00 0.00 0.00 0.00 0.00 0.00 0.00 0.00 0.00 0.00 0.00 0.00
0.00 0.00 0.00 0.00 0.00 0.00 0.00 0.00 0.00 0.00 0.00 0.00 0.00 0.00 0.00 0.00 0.00 0.00 0.00 0.00 0.00 0.00 0.00 0.00 0.00 0.00 0.00 0.00 0.00 0.00 0.00 0.00 0.00 0.00 0.00 0.00 0.00 0.00 0.00 0.00 0.00 0.00 0.00
0.00 0.00 0.00 0.00 0.00 0.00 0.00 0.00 0.00 0.00 0.00 0.00 0.00 0.00 0.00 0.00 0.00 0.00 0.00 0.00 0.00 0.00 0.00 0.00 0.00 0.00 0.00 0.00 0.00 0.00 0.00 0.00 0.00 0.00 0.00 0.00 0.00 0.00 0.00 0.00 0.00 0.00 0.00
0.00 0.00 0.00 0.00 0.00 0.00 0.00 0.00 0.00 0.00 0.00 0.00 0.00 0.00 0.00 0.00 0.00 0.00 0.00 0.00 0.00 0.00 0.00 0.00 0.00 0.00 0.00 0.00 0.00 0.00 0.00 0.00 0.00 0.00 0.00 0.00 0.00 0.00 0.00 0.01 0.01 0.00 0.00
0.00 0.00 0.00 0.00 0.00 0.00 0.00 0.00 0.00 0.00 0.00 0.00 0.00 0.00 0.00 0.00 0.00 0.00 0.00 0.00 0.00 0.00 0.00 0.00 0.00 0.00 0.00 0.00 0.00 0.00 0.00 0.00 0.00 0.00 0.00 0.00 0.00 0.00 0.00 0.00 0.00 0.00 0.00
0.00 0.00 0.00 0.00 0.00 0.00 0.00 0.00 0.00 0.00 0.00 0.00 0.00 0.00 0.00 0.00 0.00 0.00 0.00 0.00 0.00 0.00 0.00 0.00 0.00 0.00 0.00 0.00 0.00 0.00 0.00 0.00 0.00 0.00 0.00 0.00 0.00 0.00 0.00 0.00 0.00 0.00 0.00
0.00 0.00 0.00 0.00 0.00 0.00 0.00 0.00 0.00 0.00 0.00 0.00 0.00 0.00 0.00 0.00 0.00 0.00 0.00 0.00 0.00 0.00 0.00 0.00 0.00 0.00 0.00 0.00 0.00 0.00 0.00 0.00 0.00 0.00 0.00 0.00 0.00 0.01 0.00 0.00 0.00 0.00 0.00
0.00 0.00 0.00 0.00 0.00 0.00 0.00 0.00 0.00 0.00 0.00 0.00 0.00 0.00 0.00 0.00 0.00 0.00 0.00 0.00 0.00 0.00 0.00 0.00 0.00 0.00 0.00 0.00 0.00 0.00 0.00 0.00 0.00 0.00 0.00 0.00 0.00 0.00 0.00 0.00 0.00 0.00 0.00
0.00 0.00 0.00 0.00 0.00 0.00 0.00 0.00 0.00 0.00 0.00 0.00 0.00 0.00 0.00 0.00 0.00 0.00 0.00 0.00 0.00 0.00 0.00 0.00 0.00 0.00 0.00 0.00 0.00 0.00 0.00 0.00 0.00 0.00 0.00 0.00 0.00 0.00 0.00 0.00 0.00 0.00 0.00
0.00 0.00 0.00 0.00 0.00 0.00 0.00 0.00 0.00 0.00 0.00 0.00 0.00 0.00 0.00 0.00 0.00 0.00 0.00 0.00 0.00 0.00 0.00 0.00 0.00 0.00 0.00 0.00 0.00 0.00 0.00 0.00 0.00 0.00 0.00 0.00 0.00 0.00 0.00 0.00 0.00 0.00 0.00
0.00 0.00 0.00 0.00 0.00 0.00 0.00 0.00 0.00 0.00 0.00 0.00 0.00 0.00 0.00 0.00 0.00 0.00 0.00 0.00 0.00 0.00 0.00 0.00 0.00 0.00 0.00 0.00 0.00 0.00 0.01 0.00 0.00 0.00 0.00 0.00 0.00 0.00 0.00 0.00 0.00 0.00 0.00
0.00 0.00 0.00 0.00 0.00 0.00 0.00 0.00 0.00 0.00 0.00 0.00 0.00 0.00 0.00 0.00 0.00 0.00 0.00 0.00 0.00 0.01 0.02 0.02 0.03 0.02 0.01 0.01 0.00 0.00 0.00 0.00 0.00 0.00 0.00 0.00 0.00 0.00 0.00 0.00 0.00 0.00 0.00
0.00 0.00 0.00 0.00 0.00 0.00 0.00 0.00 0.00 0.00 0.00 0.00 0.00 0.00 0.00 0.00 0.00 0.01 0.02 0.01 0.01 0.03 0.02 0.01 0.02 0.03 0.02 0.01 0.02 0.01 0.00 0.00 0.00 0.00 0.00 0.00 0.00 0.00 0.00 0.00 0.00 0.00 0.00
0.00 0.00 0.00 0.00 0.00 0.00 0.00 0.00 0.00 0.00 0.00 0.00 0.00 0.00 0.00 0.00 0.01 0.02 0.03 0.06 0.05 0.05 0.05 0.04 0.03 0.02 0.03 0.04 0.04 0.02 0.01 0.02 0.02 0.01 0.00 0.00 0.00 0.00 0.00 0.00 0.00 0.00 0.00

GFSMW_prec_precacc6_081.txt.gz
Total_Precipitation_Accumulation
0.79 0.89 0.40 0.11 0.07 0.06 0.03 0.04 0.04 0.05 0.05 0.07 0.14 0.18 0.17 0.19 0.13 0.06 0.05 0.04 0.09 0.11 0.13 0.09 0.05 0.01 0.00 0.00 0.00 0.00 0.00 0.00 0.00 0.01 0.00 0.00 0.00 0.00 0.00 0.00 0.00 0.00 0.00
0.66 1.00 1.18 0.40 0.30 0.66 0.47 0.25 0.20 0.21 0.16 0.13 0.15 0.09 0.14 0.12 0.06 0.02 0.01 0.01 0.02 0.09 0.18 0.16 0.15 0.10 0.04 0.02 0.01 0.00 0.03 0.03 0.04 0.02 0.02 0.00 0.00 0.00 0.00 0.00 0.00 0.00 0.00
0.22 0.52 1.10 0.70 0.49 0.98 0.97 0.59 0.56 0.37 0.17 0.06 0.18 0.17 0.20 0.17 0.16 0.08 0.02 0.03 0.02 0.05 0.21 0.28 0.24 0.25 0.26 0.28 0.25 0.18 0.17 0.16 0.16 0.09 0.03 0.01 0.00 0.00 0.00 0.00 0.00 0.00 0.00
0.11 0.20 0.37 0.47 0.38 0.31 0.30 0.43 0.62 0.43 0.28 0.18 0.32 0.33 0.41 0.47 0.47 0.36 0.26 0.17 0.18 0.22 0.43 0.58 0.63 0.63 0.52 0.41 0.55 0.54 0.36 0.27 0.22 0.17 0.08 0.04 0.01 0.00 0.00 0.00 0.00 0.00 0.00
0.15 0.16 0.19 0.14 0.10 0.07 0.09 0.14 0.19 0.21 0.29 0.34 0.40 0.51 0.53 0.54 0.47 0.40 0.37 0.37 0.42 0.33 0.26 0.35 0.45 0.45 0.56 0.78 0.84 0.83 0.84 0.56 0.20 0.11 0.04 0.02 0.01 0.00 0.00 0.00 0.00 0.00 0.00
0.05 0.17 0.05 0.01 0.00 0.00 0.00 0.00 0.03 0.07 0.17 0.17 0.16 0.39 0.58 0.61 0.56 0.40 0.37 0.31 0.27 0.31 0.36 0.31 0.30 0.32 0.32 0.39 0.58 0.73 0.67 0.53 0.26 0.13 0.08 0.02 0.00 0.00 0.00 0.00 0.00 0.00 0.00
0.02 0.07 0.05 0.01 0.00 0.00 0.00 0.00 0.00 0.01 0.02 0.05 0.11 0.16 0.18 0.24 0.12 0.07 0.06 0.03 0.05 0.08 0.09 0.10 0.16 0.19 0.23 0.24 0.28 0.32 0.37 0.38 0.32 0.21 0.14 0.09 0.05 0.02 0.00 0.00 0.00 0.00 0.00
0.05 0.04 0.01 0.01 0.00 0.00 0.00 0.00 0.00 0.00 0.00 0.00 0.01 0.02 0.07 0.10 0.09 0.07 0.04 0.03 0.03 0.04 0.04 0.04 0.07 0.09 0.12 0.19 0.29 0.29 0.26 0.22 0.19 0.17 0.14 0.11 0.07 0.02 0.00 0.00 0.00 0.00 0.00
0.10 0.02 0.02 0.00 0.00 0.00 0.00 0.00 0.00 0.00 0.00 0.00 0.00 0.00 0.00 0.00 0.02 0.03 0.01 0.00 0.01 0.04 0.08 0.07 0.08 0.06 0.03 0.05 0.09 0.11 0.10 0.06 0.04 0.02 0.01 0.01 0.00 0.00 0.00 0.00 0.00 0.01 0.00
0.03 0.01 0.00 0.00 0.00 0.00 0.00 0.00 0.00 0.00 0.00 0.00 0.00 0.00 0.00 0.00 0.00 0.00 0.00 0.00 0.00 0.00 0.01 0.01 0.01 0.00 0.00 0.01 0.01 0.01 0.00 0.00 0.00 0.00 0.00 0.00 0.00 0.00 0.00 0.00 0.00 0.01 0.01
0.01 0.00 0.00 0.00 0.00 0.00 0.00 0.00 0.00 0.00 0.00 0.00 0.00 0.00 0.00 0.00 0.00 0.00 0.00 0.00 0.00 0.00 0.00 0.00 0.00 0.00 0.01 0.00 0.00 0.00 0.00 0.00 0.00 0.00 0.00 0.00 0.00 0.00 0.00 0.00 0.00 0.00 0.00
0.00 0.00 0.00 0.00 0.00 0.00 0.00 0.00 0.00 0.00 0.00 0.00 0.00 0.00 0.00 0.00 0.00 0.00 0.00 0.00 0.00 0.00 0.00 0.01 0.01 0.01 0.02 0.01 0.00 0.00 0.00 0.00 0.00 0.00 0.00 0.00 0.00 0.00 0.00 0.00 0.00 0.00 0.00
0.00 0.00 0.00 0.00 0.00 0.00 0.00 0.00 0.00 0.00 0.00 0.00 0.00 0.00 0.00 0.00 0.00 0.00 0.00 0.00 0.00 0.00 0.00 0.00 0.03 0.04 0.02 0.01 0.00 0.00 0.00 0.00 0.00 0.00 0.00 0.00 0.00 0.00 0.00 0.00 0.00 0.00 0.00
0.00 0.00 0.00 0.00 0.00 0.00 0.00 0.00 0.00 0.00 0.00 0.00 0.00 0.00 0.00 0.00 0.00 0.00 0.00 0.00 0.00 0.00 0.00 0.00 0.00 0.01 0.01 0.01 0.00 0.00 0.00 0.00 0.00 0.00 0.00 0.00 0.00 0.00 0.00 0.00 0.00 0.00 0.00
0.00 0.00 0.00 0.00 0.00 0.00 0.00 0.00 0.00 0.00 0.00 0.00 0.00 0.00 0.00 0.00 0.00 0.00 0.00 0.00 0.00 0.00 0.00 0.00 0.00 0.00 0.00 0.00 0.00 0.00 0.00 0.00 0.00 0.00 0.00 0.00 0.00 0.00 0.00 0.00 0.00 0.00 0.00
0.00 0.00 0.00 0.00 0.00 0.00 0.00 0.00 0.00 0.00 0.00 0.00 0.00 0.00 0.00 0.00 0.00 0.00 0.00 0.00 0.00 0.00 0.00 0.00 0.00 0.00 0.00 0.00 0.00 0.00 0.00 0.00 0.00 0.00 0.00 0.00 0.00 0.00 0.00 0.00 0.00 0.00 0.00
0.00 0.00 0.00 0.00 0.00 0.00 0.00 0.00 0.00 0.00 0.00 0.00 0.00 0.00 0.00 0.00 0.00 0.00 0.00 0.00 0.00 0.00 0.00 0.00 0.00 0.00 0.00 0.00 0.00 0.00 0.00 0.00 0.00 0.00 0.00 0.00 0.00 0.00 0.00 0.00 0.00 0.00 0.00
0.00 0.00 0.00 0.00 0.00 0.00 0.00 0.00 0.00 0.00 0.00 0.00 0.00 0.00 0.00 0.00 0.00 0.00 0.00 0.00 0.00 0.00 0.00 0.00 0.00 0.00 0.00 0.00 0.00 0.00 0.00 0.00 0.00 0.00 0.00 0.00 0.00 0.00 0.00 0.00 0.00 0.00 0.00
0.00 0.00 0.00 0.00 0.00 0.00 0.00 0.00 0.00 0.00 0.00 0.00 0.00 0.00 0.00 0.00 0.00 0.00 0.00 0.00 0.00 0.00 0.00 0.00 0.00 0.00 0.00 0.00 0.00 0.00 0.00 0.00 0.00 0.00 0.00 0.00 0.00 0.00 0.00 0.00 0.00 0.00 0.00
0.00 0.00 0.00 0.00 0.00 0.00 0.00 0.00 0.00 0.00 0.00 0.00 0.00 0.00 0.00 0.00 0.00 0.00 0.00 0.00 0.00 0.00 0.00 0.00 0.00 0.00 0.00 0.00 0.00 0.00 0.00 0.00 0.00 0.00 0.00 0.00 0.00 0.00 0.00 0.00 0.00 0.00 0.00
0.00 0.00 0.00 0.00 0.00 0.00 0.00 0.00 0.00 0.00 0.00 0.00 0.00 0.00 0.00 0.00 0.00 0.00 0.00 0.00 0.00 0.00 0.00 0.00 0.00 0.00 0.00 0.00 0.00 0.00 0.00 0.00 0.00 0.00 0.00 0.00 0.00 0.00 0.00 0.00 0.00 0.00 0.00
0.00 0.00 0.00 0.00 0.00 0.00 0.00 0.00 0.00 0.00 0.00 0.00 0.00 0.00 0.00 0.00 0.00 0.00 0.00 0.00 0.00 0.00 0.00 0.00 0.00 0.00 0.00 0.00 0.00 0.00 0.00 0.00 0.00 0.00 0.00 0.00 0.00 0.00 0.00 0.00 0.00 0.00 0.00
0.00 0.00 0.00 0.00 0.00 0.00 0.00 0.00 0.00 0.00 0.00 0.00 0.00 0.00 0.00 0.00 0.00 0.00 0.00 0.00 0.00 0.00 0.00 0.00 0.00 0.00 0.00 0.00 0.01 0.00 0.01 0.00 0.00 0.00 0.00 0.00 0.00 0.00 0.00 0.00 0.00 0.00 0.00
0.00 0.00 0.00 0.00 0.00 0.00 0.00 0.00 0.00 0.00 0.00 0.00 0.00 0.00 0.00 0.00 0.00 0.00 0.00 0.00 0.00 0.01 0.02 0.02 0.03 0.03 0.04 0.04 0.04 0.03 0.03 0.02 0.00 0.00 0.00 0.00 0.00 0.00 0.00 0.00 0.00 0.00 0.00
0.00 0.00 0.00 0.00 0.00 0.00 0.00 0.00 0.00 0.00 0.00 0.00 0.00 0.00 0.00 0.00 0.00 0.00 0.00 0.00 0.01 0.02 0.02 0.01 0.02 0.04 0.05 0.06 0.12 0.11 0.07 0.06 0.06 0.04 0.02 0.00 0.00 0.00 0.00 0.00 0.00 0.00 0.00
0.00 0.00 0.00 0.00 0.00 0.00 0.00 0.00 0.00 0.00 0.00 0.00 0.00 0.00 0.00 0.00 0.00 0.00 0.00 0.00 0.01 0.02 0.04 0.03 0.03 0.02 0.04 0.05 0.10 0.10 0.08 0.06 0.05 0.04 0.01 0.00 0.00 0.00 0.00 0.00 0.00 0.00 0.00

GFSMW_prec_precacc6_084.txt.gz
Total_Precipitation_Accumulation
0.35 0.36 0.26 0.17 0.23 0.08 0.02 0.05 0.03 0.06 0.09 0.16 0.19 0.19 0.32 0.35 0.23 0.13 0.14 0.09 0.12 0.12 0.05 0.03 0.04 0.02 0.00 0.00 0.00 0.00 0.00 0.00 0.00 0.00 0.00 0.00 0.00 0.00 0.00 0.00 0.00 0.00 0.00
0.39 0.63 0.63 0.31 0.22 0.25 0.15 0.15 0.16 0.20 0.21 0.29 0.30 0.15 0.22 0.26 0.24 0.22 0.12 0.08 0.07 0.08 0.06 0.06 0.06 0.07 0.09 0.03 0.02 0.01 0.00 0.01 0.01 0.01 0.02 0.01 0.00 0.00 0.00 0.00 0.00 0.00 0.00
0.15 0.55 1.20 0.99 0.76 0.72 0.59 0.47 0.60 0.49 0.30 0.22 0.20 0.19 0.19 0.21 0.18 0.14 0.19 0.15 0.09 0.06 0.01 0.00 0.01 0.06 0.20 0.31 0.24 0.18 0.15 0.13 0.14 0.15 0.08 0.02 0.00 0.00 0.00 0.00 0.00 0.00 0.00
0.13 0.26 0.57 1.04 1.06 0.47 0.36 0.50 0.75 0.67 0.27 0.22 0.30 0.28 0.23 0.25 0.27 0.22 0.13 0.11 0.06 0.01 0.01 0.02 0.02 0.13 0.28 0.26 0.40 0.44 0.39 0.45 0.43 0.41 0.24 0.13 0.06 0.00 0.00 0.00 0.00 0.00 0.00
0.17 0.20 0.33 0.50 0.39 0.27 0.27 0.25 0.29 0.30 0.28 0.33 0.39 0.44 0.30 0.28 0.25 0.23 0.20 0.14 0.17 0.14 0.07 0.02 0.05 0.12 0.23 0.31 0.39 0.65 0.85 0.86 0.67 0.60 0.45 0.28 0.12 0.05 0.01 0.00 0.00 0.00 0.00
0.07 0.24 0.19 0.21 0.18 0.16 0.16 0.13 0.13 0.21 0.36 0.30 0.28 0.37 0.53 0.65 0.58 0.36 0.28 0.23 0.18 0.15 0.15 0.12 0.12 0.13 0.15 0.20 0.30 0.44 0.60 0.65 0.70 0.71 0.63 0.43 0.25 0.15 0.08 0.07 0.05 0.01 0.00
0.04 0.12 0.26 0.12 0.07 0.05 0.02 0.01 0.01 0.03 0.16 0.18 0.21 0.30 0.25 0.38 0.20 0.20 0.12 0.02 0.02 0.02 0.02 0.04 0.08 0.12 0.14 0.14 0.18 0.20 0.23 0.32 0.40 0.41 0.45 0.46 0.39 0.33 0.25 0.13 0.05 0.01 0.00
0.07 0.05 0.12 0.10 0.03 0.01 0.00 0.00 0.00 0.00 0.00 0.01 0.06 0.09 0.21 0.31 0.17 0.13 0.08 0.08 0.01 0.01 0.02 0.02 0.03 0.04 0.05 0.06 0.09 0.22 0.27 0.23 0.22 0.25 0.23 0.22 0.19 0.13 0.06 0.02 0.01 0.00 0.00
0.16 0.06 0.04 0.02 0.01 0.00 0.00 0.00 0.00 0.00 0.00 0.00 0.00 0.00 0.01 0.01 0.10 0.15 0.10 0.12 0.08 0.05 0.08 0.18 0.13 0.07 0.05 0.06 0.07 0.07 0.06 0.04 0.03 0.04 0.04 0.03 0.02 0.01 0.00 0.00 0.00 0.00 0.00
0.10 0.04 0.01 0.01 0.00 0.00 0.00 0.00 0.00 0.00 0.00 0.00 0.00 0.00 0.00 0.00 0.00 0.00 0.00 0.01 0.02 0.02 0.02 0.03 0.01 0.01 0.01 0.02 0.03 0.03 0.04 0.02 0.05 0.03 0.00 0.00 0.00 0.00 0.00 0.00 0.00 0.00 0.00
0.01 0.00 0.00 0.00 0.00 0.00 0.00 0.00 0.00 0.00 0.00 0.00 0.00 0.00 0.00 0.00 0.00 0.00 0.00 0.00 0.00 0.00 0.00 0.00 0.00 0.01 0.01 0.01 0.02 0.02 0.02 0.02 0.02 0.00 0.00 0.00 0.00 0.00 0.00 0.00 0.00 0.00 0.00
0.00 0.00 0.00 0.00 0.00 0.00 0.00 0.00 0.00 0.00 0.00 0.00 0.00 0.00 0.00 0.00 0.00 0.00 0.00 0.00 0.00 0.00 0.00 0.00 0.01 0.02 0.04 0.04 0.03 0.03 0.02 0.01 0.00 0.00 0.00 0.00 0.00 0.00 0.00 0.00 0.00 0.00 0.00
0.00 0.00 0.00 0.00 0.00 0.00 0.00 0.00 0.00 0.00 0.00 0.00 0.00 0.00 0.00 0.00 0.00 0.00 0.00 0.00 0.00 0.00 0.00 0.00 0.02 0.04 0.03 0.03 0.03 0.02 0.01 0.00 0.00 0.00 0.00 0.00 0.00 0.00 0.00 0.00 0.00 0.00 0.00
0.00 0.00 0.00 0.00 0.00 0.00 0.00 0.00 0.00 0.00 0.00 0.00 0.00 0.00 0.00 0.00 0.00 0.00 0.00 0.00 0.00 0.00 0.00 0.00 0.00 0.01 0.02 0.02 0.02 0.01 0.01 0.00 0.00 0.00 0.00 0.00 0.00 0.00 0.00 0.00 0.00 0.00 0.00
0.00 0.00 0.00 0.00 0.00 0.00 0.00 0.00 0.00 0.00 0.00 0.00 0.00 0.00 0.00 0.00 0.00 0.00 0.00 0.00 0.00 0.00 0.00 0.00 0.00 0.00 0.00 0.00 0.01 0.01 0.01 0.01 0.00 0.00 0.00 0.00 0.00 0.00 0.00 0.00 0.00 0.00 0.00
0.00 0.00 0.00 0.00 0.00 0.00 0.00 0.00 0.00 0.00 0.00 0.00 0.00 0.00 0.00 0.00 0.00 0.00 0.00 0.00 0.00 0.00 0.00 0.00 0.00 0.00 0.00 0.00 0.00 0.00 0.00 0.00 0.00 0.00 0.00 0.00 0.00 0.00 0.00 0.00 0.00 0.00 0.00
0.00 0.00 0.00 0.00 0.00 0.00 0.00 0.00 0.00 0.00 0.00 0.00 0.00 0.00 0.00 0.00 0.00 0.00 0.00 0.00 0.00 0.00 0.00 0.00 0.00 0.00 0.00 0.00 0.00 0.00 0.00 0.00 0.00 0.00 0.00 0.00 0.00 0.00 0.00 0.00 0.00 0.00 0.00
0.00 0.00 0.00 0.00 0.00 0.00 0.00 0.00 0.00 0.00 0.00 0.00 0.00 0.00 0.00 0.00 0.00 0.00 0.00 0.00 0.00 0.00 0.00 0.00 0.00 0.00 0.00 0.00 0.00 0.00 0.00 0.00 0.00 0.00 0.00 0.00 0.00 0.00 0.00 0.00 0.00 0.00 0.00
0.00 0.00 0.00 0.00 0.00 0.00 0.00 0.00 0.00 0.00 0.00 0.00 0.00 0.00 0.00 0.00 0.00 0.00 0.00 0.00 0.00 0.00 0.00 0.00 0.00 0.00 0.00 0.00 0.00 0.00 0.00 0.00 0.00 0.00 0.00 0.00 0.00 0.00 0.00 0.00 0.00 0.00 0.00
0.00 0.00 0.00 0.00 0.00 0.00 0.00 0.00 0.00 0.00 0.00 0.00 0.00 0.00 0.00 0.00 0.00 0.00 0.00 0.00 0.00 0.00 0.00 0.00 0.00 0.00 0.00 0.00 0.00 0.00 0.00 0.00 0.00 0.00 0.00 0.00 0.00 0.00 0.00 0.00 0.00 0.00 0.00
0.00 0.00 0.00 0.00 0.00 0.00 0.00 0.00 0.00 0.00 0.00 0.00 0.00 0.00 0.00 0.00 0.00 0.00 0.00 0.00 0.00 0.00 0.00 0.00 0.00 0.00 0.00 0.00 0.00 0.00 0.00 0.00 0.00 0.00 0.00 0.00 0.00 0.00 0.00 0.00 0.00 0.00 0.00
0.00 0.00 0.00 0.00 0.00 0.00 0.00 0.00 0.00 0.00 0.00 0.00 0.00 0.00 0.00 0.00 0.00 0.00 0.00 0.00 0.00 0.00 0.00 0.00 0.00 0.00 0.00 0.00 0.00 0.00 0.00 0.00 0.00 0.00 0.00 0.00 0.00 0.00 0.00 0.01 0.00 0.00 0.00
0.00 0.00 0.00 0.00 0.00 0.00 0.00 0.00 0.00 0.00 0.00 0.00 0.00 0.00 0.00 0.00 0.00 0.00 0.00 0.00 0.00 0.00 0.00 0.00 0.00 0.00 0.00 0.00 0.03 0.03 0.02 0.03 0.01 0.00 0.00 0.00 0.00 0.00 0.00 0.01 0.00 0.00 0.00
0.00 0.00 0.00 0.00 0.00 0.00 0.00 0.00 0.00 0.00 0.00 0.00 0.00 0.00 0.00 0.00 0.00 0.00 0.00 0.00 0.00 0.00 0.00 0.00 0.00 0.01 0.03 0.04 0.05 0.07 0.07 0.05 0.03 0.01 0.01 0.01 0.00 0.00 0.00 0.00 0.00 0.00 0.00
0.00 0.00 0.00 0.00 0.00 0.00 0.00 0.00 0.00 0.00 0.00 0.00 0.00 0.00 0.00 0.00 0.00 0.00 0.00 0.00 0.00 0.00 0.00 0.00 0.00 0.01 0.03 0.06 0.13 0.15 0.13 0.13 0.16 0.16 0.09 0.04 0.01 0.00 0.00 0.00 0.00 0.00 0.00
0.00 0.00 0.00 0.00 0.00 0.00 0.00 0.00 0.00 0.00 0.00 0.00 0.00 0.00 0.00 0.00 0.00 0.00 0.00 0.00 0.00 0.00 0.00 0.01 0.01 0.01 0.02 0.04 0.09 0.12 0.14 0.16 0.19 0.19 0.12 0.07 0.03 0.00 0.00 0.00 0.00 0.00 0.00

GFSMW_prec_precacc6_087.txt.gz
Total_Precipitation_Accumulation
0.01 0.02 0.11 0.16 0.26 0.25 0.15 0.06 0.02 0.02 0.06 0.15 0.13 0.12 0.32 0.62 0.61 0.54 0.29 0.11 0.11 0.10 0.04 0.01 0.00 0.01 0.00 0.00 0.00 0.00 0.00 0.00 0.00 0.00 0.00 0.00 0.00 0.00 0.00 0.00 0.00 0.00 0.00
0.13 0.12 0.29 0.18 0.16 0.23 0.17 0.11 0.10 0.09 0.14 0.26 0.25 0.15 0.16 0.31 0.48 0.55 0.52 0.36 0.24 0.14 0.09 0.06 0.04 0.02 0.09 0.02 0.01 0.01 0.00 0.00 0.00 0.01 0.01 0.01 0.00 0.00 0.00 0.00 0.00 0.00 0.00
0.22 0.39 0.58 0.47 0.53 0.37 0.26 0.35 0.39 0.24 0.18 0.24 0.18 0.11 0.07 0.14 0.20 0.23 0.46 0.54 0.40 0.23 0.16 0.11 0.06 0.03 0.12 0.21 0.20 0.18 0.12 0.08 0.06 0.08 0.09 0.04 0.01 0.00 0.00 0.00 0.00 0.00 0.00
0.15 0.22 0.29 0.63 0.87 0.45 0.34 0.53 0.93 0.99 0.21 0.25 0.24 0.26 0.12 0.18 0.20 0.24 0.18 0.21 0.22 0.16 0.09 0.08 0.08 0.04 0.01 0.02 0.03 0.11 0.19 0.34 0.40 0.40 0.29 0.23 0.17 0.11 0.05 0.01 0.00 0.00 0.00
0.06 0.08 0.15 0.40 0.40 0.31 0.31 0.37 0.61 0.93 0.50 0.45 0.40 0.31 0.27 0.18 0.18 0.19 0.19 0.13 0.11 0.09 0.04 0.01 0.04 0.06 0.03 0.00 0.00 0.01 0.06 0.33 0.49 0.51 0.46 0.38 0.34 0.38 0.30 0.11 0.01 0.00 0.00
0.06 0.10 0.15 0.24 0.31 0.38 0.44 0.36 0.37 0.44 0.57 0.56 0.43 0.24 0.24 0.35 0.30 0.20 0.17 0.16 0.09 0.03 0.02 0.01 0.02 0.03 0.02 0.00 0.01 0.01 0.08 0.16 0.45 0.59 0.56 0.49 0.44 0.42 0.48 0.36 0.18 0.08 0.03
0.17 0.08 0.26 0.21 0.28 0.31 0.19 0.14 0.28 0.30 0.44 0.33 0.28 0.44 0.24 0.34 0.22 0.20 0.13 0.04 0.02 0.01 0.00 0.01 0.01 0.02 0.03 0.05 0.07 0.06 0.05 0.07 0.14 0.23 0.32 0.40 0.45 0.50 0.53 0.50 0.32 0.12 0.03
0.16 0.09 0.15 0.17 0.12 0.04 0.01 0.01 0.02 0.02 0.05 0.08 0.14 0.23 0.30 0.48 0.37 0.27 0.18 0.14 0.03 0.02 0.01 0.00 0.00 0.01 0.01 0.02 0.04 0.11 0.14 0.18 0.23 0.24 0.19 0.17 0.20 0.24 0.21 0.16 0.12 0.05 0.01
0.15 0.11 0.05 0.09 0.06 0.00 0.00 0.00 0.00 0.00 0.00 0.00 0.00 0.01 0.04 0.05 0.13 0.20 0.25 0.34 0.31 0.08 0.05 0.22 0.23 0.09 0.08 0.05 0.04 0.04 0.05 0.06 0.06 0.06 0.06 0.05 0.04 0.04 0.03 0.02 0.00 0.00 0.00
0.26 0.11 0.05 0.03 0.02 0.00 0.00 0.00 0.00 0.00 0.00 0.00 0.00 0.00 0.00 0.00 0.01 0.02 0.02 0.04 0.10 0.11 0.09 0.13 0.14 0.09 0.03 0.02 0.03 0.03 0.06 0.05 0.06 0.09 0.12 0.08 0.02 0.01 0.01 0.00 0.00 0.00 0.00
0.10 0.02 0.00 0.00 0.00 0.00 0.00 0.00 0.00 0.00 0.00 0.00 0.00 0.00 0.00 0.00 0.00 0.00 0.00 0.00 0.00 0.00 0.00 0.00 0.00 0.00 0.00 0.01 0.01 0.02 0.02 0.04 0.03 0.05 0.11 0.14 0.03 0.00 0.00 0.00 0.00 0.00 0.00
0.00 0.00 0.00 0.00 0.00 0.00 0.00 0.00 0.00 0.00 0.00 0.00 0.00 0.00 0.00 0.00 0.00 0.00 0.00 0.00 0.00 0.00 0.00 0.00 0.00 0.00 0.01 0.03 0.04 0.03 0.03 0.04 0.03 0.04 0.05 0.03 0.00 0.00 0.00 0.00 0.00 0.00 0.00
0.00 0.00 0.00 0.00 0.00 0.00 0.00 0.00 0.00 0.00 0.00 0.00 0.00 0.00 0.00 0.00 0.00 0.00 0.00 0.00 0.00 0.00 0.00 0.00 0.00 0.00 0.01 0.02 0.03 0.03 0.02 0.02 0.03 0.04 0.04 0.01 0.00 0.00 0.00 0.00 0.00 0.00 0.00
0.00 0.00 0.00 0.00 0.00 0.00 0.00 0.00 0.00 0.00 0.00 0.00 0.00 0.00 0.00 0.00 0.00 0.00 0.00 0.00 0.00 0.00 0.00 0.00 0.00 0.00 0.00 0.01 0.02 0.02 0.02 0.02 0.02 0.02 0.01 0.00 0.00 0.00 0.00 0.00 0.00 0.00 0.00
0.00 0.00 0.00 0.00 0.00 0.00 0.00 0.00 0.00 0.00 0.00 0.00 0.00 0.00 0.00 0.00 0.00 0.00 0.00 0.00 0.00 0.00 0.00 0.00 0.00 0.00 0.00 0.00 0.01 0.01 0.02 0.02 0.03 0.02 0.01 0.00 0.00 0.00 0.00 0.00 0.00 0.00 0.00
0.00 0.00 0.00 0.00 0.00 0.00 0.00 0.00 0.00 0.00 0.00 0.00 0.00 0.00 0.00 0.00 0.00 0.00 0.00 0.00 0.00 0.00 0.00 0.00 0.00 0.00 0.00 0.00 0.00 0.00 0.01 0.01 0.02 0.02 0.01 0.00 0.01 0.00 0.00 0.00 0.00 0.00 0.00
0.00 0.00 0.00 0.00 0.00 0.00 0.00 0.00 0.00 0.00 0.00 0.00 0.00 0.00 0.00 0.00 0.00 0.00 0.00 0.00 0.00 0.00 0.00 0.00 0.00 0.00 0.00 0.00 0.00 0.00 0.00 0.00 0.00 0.00 0.00 0.00 0.00 0.00 0.00 0.00 0.00 0.00 0.00
0.00 0.00 0.00 0.00 0.00 0.00 0.00 0.00 0.00 0.00 0.00 0.00 0.00 0.00 0.00 0.00 0.00 0.00 0.00 0.00 0.00 0.00 0.00 0.00 0.00 0.00 0.00 0.00 0.00 0.00 0.00 0.00 0.00 0.00 0.00 0.00 0.00 0.00 0.00 0.00 0.00 0.00 0.00
0.00 0.00 0.00 0.00 0.00 0.00 0.00 0.00 0.00 0.00 0.00 0.00 0.00 0.00 0.00 0.00 0.00 0.00 0.00 0.00 0.00 0.00 0.00 0.00 0.00 0.00 0.00 0.00 0.00 0.00 0.00 0.00 0.00 0.00 0.00 0.00 0.00 0.00 0.00 0.00 0.00 0.00 0.00
0.00 0.00 0.00 0.00 0.00 0.00 0.00 0.00 0.00 0.00 0.00 0.00 0.00 0.00 0.00 0.00 0.00 0.00 0.00 0.00 0.00 0.00 0.00 0.00 0.00 0.00 0.00 0.00 0.00 0.00 0.00 0.00 0.00 0.00 0.00 0.00 0.00 0.00 0.00 0.00 0.00 0.00 0.00
0.00 0.00 0.00 0.00 0.00 0.00 0.00 0.00 0.00 0.00 0.00 0.00 0.00 0.00 0.00 0.00 0.00 0.00 0.00 0.00 0.00 0.00 0.00 0.00 0.00 0.00 0.00 0.00 0.00 0.00 0.00 0.00 0.00 0.00 0.00 0.00 0.00 0.00 0.00 0.00 0.00 0.00 0.00
0.00 0.00 0.00 0.00 0.00 0.00 0.00 0.00 0.00 0.00 0.00 0.00 0.00 0.00 0.00 0.00 0.00 0.00 0.00 0.00 0.00 0.00 0.00 0.00 0.00 0.00 0.00 0.00 0.01 0.01 0.02 0.02 0.00 0.00 0.00 0.00 0.00 0.00 0.00 0.01 0.00 0.00 0.00
0.00 0.00 0.00 0.00 0.00 0.00 0.00 0.00 0.00 0.00 0.00 0.00 0.00 0.00 0.00 0.00 0.00 0.00 0.00 0.00 0.00 0.00 0.00 0.00 0.00 0.00 0.00 0.00 0.03 0.03 0.03 0.05 0.04 0.01 0.01 0.02 0.01 0.01 0.01 0.01 0.01 0.00 0.00
0.00 0.00 0.00 0.00 0.00 0.00 0.00 0.00 0.00 0.00 0.00 0.00 0.00 0.00 0.00 0.00 0.00 0.00 0.00 0.00 0.00 0.00 0.00 0.00 0.00 0.00 0.00 0.01 0.01 0.04 0.05 0.06 0.06 0.05 0.04 0.05 0.04 0.04 0.03 0.03 0.02 0.00 0.00
0.00 0.00 0.00 0.00 0.00 0.00 0.00 0.00 0.00 0.00 0.00 0.00 0.00 0.00 0.00 0.00 0.00 0.00 0.00 0.00 0.00 0.00 0.00 0.00 0.00 0.00 0.00 0.00 0.03 0.05 0.07 0.09 0.16 0.22 0.14 0.12 0.06 0.03 0.02 0.01 0.02 0.01 0.00
0.00 0.00 0.00 0.00 0.00 0.00 0.00 0.00 0.00 0.00 0.00 0.00 0.00 0.00 0.00 0.00 0.00 0.00 0.00 0.00 0.00 0.00 0.00 0.00 0.00 0.00 0.01 0.01 0.03 0.05 0.08 0.14 0.21 0.27 0.16 0.11 0.07 0.03 0.03 0.02 0.02 0.02 0.01

GFSMW_prec_precacc6_090.txt.gz
Total_Precipitation_Accumulation
0.01 0.03 0.07 0.07 0.08 0.20 0.15 0.06 0.02 0.01 0.01 0.05 0.05 0.16 0.28 0.53 0.81 0.65 0.31 0.11 0.08 0.05 0.03 0.00 0.00 0.00 0.00 0.00 0.00 0.00 0.00 0.00 0.00 0.00 0.00 0.00 0.00 0.00 0.00 0.00 0.00 0.00 0.00
0.16 0.10 0.11 0.09 0.08 0.13 0.14 0.07 0.04 0.03 0.05 0.11 0.10 0.11 0.16 0.34 0.63 0.79 0.67 0.55 0.31 0.13 0.07 0.04 0.00 0.00 0.03 0.01 0.01 0.01 0.00 0.00 0.00 0.00 0.00 0.00 0.00 0.00 0.00 0.00 0.00 0.00 0.00
0.23 0.21 0.19 0.12 0.11 0.18 0.11 0.17 0.16 0.10 0.12 0.15 0.13 0.08 0.08 0.17 0.46 0.72 0.70 0.77 0.72 0.49 0.35 0.23 0.11 0.03 0.08 0.16 0.16 0.16 0.11 0.10 0.06 0.03 0.03 0.02 0.01 0.01 0.00 0.00 0.00 0.00 0.00
0.11 0.16 0.17 0.09 0.23 0.30 0.22 0.30 0.69 0.92 0.23 0.18 0.45 0.41 0.12 0.12 0.14 0.38 0.39 0.40 0.49 0.47 0.38 0.36 0.32 0.25 0.19 0.17 0.15 0.15 0.16 0.17 0.21 0.21 0.17 0.16 0.14 0.12 0.06 0.02 0.01 0.01 0.00
0.04 0.05 0.11 0.15 0.13 0.13 0.14 0.22 0.50 1.15 1.01 0.58 0.91 0.78 0.53 0.24 0.19 0.22 0.27 0.23 0.28 0.34 0.32 0.21 0.19 0.18 0.18 0.16 0.14 0.09 0.07 0.03 0.02 0.02 0.06 0.16 0.26 0.38 0.33 0.16 0.08 0.05 0.03
0.06 0.04 0.03 0.07 0.14 0.23 0.30 0.28 0.38 0.59 1.09 0.93 0.85 0.60 0.51 0.50 0.34 0.23 0.26 0.26 0.21 0.21 0.23 0.17 0.11 0.12 0.15 0.13 0.13 0.13 0.07 0.04 0.01 0.00 0.01 0.08 0.20 0.28 0.41 0.34 0.21 0.16 0.11
0.23 0.18 0.15 0.24 0.31 0.35 0.26 0.24 0.42 0.52 0.59 0.51 0.43 0.47 0.32 0.38 0.40 0.23 0.16 0.17 0.15 0.11 0.10 0.08 0.07 0.05 0.07 0.08 0.07 0.06 0.06 0.07 0.04 0.02 0.03 0.04 0.12 0.20 0.29 0.37 0.31 0.18 0.10
0.42 0.26 0.21 0.27 0.31 0.18 0.11 0.09 0.15 0.14 0.14 0.15 0.22 0.31 0.30 0.43 0.45 0.32 0.23 0.15 0.09 0.06 0.04 0.02 0.02 0.02 0.02 0.02 0.03 0.03 0.07 0.12 0.15 0.18 0.15 0.13 0.12 0.17 0.19 0.20 0.20 0.16 0.11
0.46 0.31 0.19 0.24 0.21 0.07 0.03 0.02 0.03 0.02 0.01 0.00 0.01 0.02 0.05 0.08 0.10 0.15 0.21 0.29 0.34 0.17 0.14 0.16 0.21 0.16 0.12 0.05 0.03 0.02 0.04 0.06 0.06 0.05 0.06 0.09 0.15 0.15 0.06 0.04 0.07 0.14 0.08
0.42 0.29 0.17 0.17 0.09 0.01 0.00 0.00 0.00 0.00 0.00 0.00 0.00 0.00 0.00 0.01 0.03 0.05 0.05 0.06 0.13 0.17 0.13 0.17 0.24 0.22 0.16 0.09 0.08 0.06 0.09 0.06 0.04 0.09 0.15 0.14 0.12 0.12 0.06 0.08 0.09 0.02 0.00
0.26 0.12 0.09 0.06 0.03 0.00 0.00 0.00 0.00 0.00 0.00 0.00 0.00 0.00 0.00 0.00 0.00 0.00 0.00 0.00 0.00 0.00 0.00 0.00 0.00 0.01 0.01 0.01 0.01 0.01 0.02 0.03 0.04 0.07 0.13 0.19 0.23 0.27 0.13 0.08 0.07 0.02 0.00
0.04 0.02 0.01 0.00 0.00 0.00 0.00 0.00 0.00 0.00 0.00 0.00 0.00 0.00 0.00 0.00 0.00 0.00 0.00 0.00 0.00 0.00 0.00 0.00 0.00 0.00 0.00 0.00 0.01 0.01 0.02 0.03 0.04 0.07 0.08 0.05 0.06 0.14 0.16 0.05 0.01 0.00 0.00
0.00 0.00 0.00 0.00 0.00 0.00 0.00 0.00 0.00 0.00 0.00 0.00 0.00 0.00 0.00 0.00 0.00 0.00 0.00 0.00 0.00 0.00 0.00 0.00 0.00 0.00 0.00 0.00 0.00 0.01 0.01 0.02 0.03 0.06 0.07 0.07 0.05 0.05 0.04 0.02 0.00 0.00 0.00
0.00 0.00 0.00 0.00 0.00 0.00 0.00 0.00 0.00 0.00 0.00 0.00 0.00 0.00 0.00 0.00 0.00 0.00 0.00 0.00 0.00 0.00 0.00 0.00 0.00 0.00 0.00 0.00 0.00 0.01 0.01 0.02 0.03 0.05 0.04 0.05 0.04 0.04 0.06 0.02 0.00 0.00 0.00
0.00 0.00 0.00 0.00 0.00 0.00 0.00 0.00 0.00 0.00 0.00 0.00 0.00 0.00 0.00 0.00 0.00 0.00 0.00 0.00 0.00 0.00 0.00 0.00 0.00 0.00 0.00 0.00 0.00 0.00 0.01 0.02 0.02 0.02 0.03 0.04 0.04 0.04 0.05 0.01 0.00 0.00 0.00
0.00 0.00 0.00 0.00 0.00 0.00 0.00 0.00 0.00 0.00 0.00 0.00 0.00 0.00 0.00 0.00 0.00 0.00 0.00 0.00 0.00 0.00 0.00 0.00 0.00 0.00 0.00 0.00 0.00 0.00 0.00 0.01 0.02 0.03 0.03 0.03 0.06 0.03 0.02 0.01 0.00 0.00 0.00
0.00 0.00 0.00 0.00 0.00 0.00 0.00 0.00 0.00 0.00 0.00 0.00 0.00 0.00 0.00 0.00 0.00 0.00 0.00 0.00 0.00 0.00 0.00 0.00 0.00 0.00 0.00 0.00 0.00 0.00 0.00 0.00 0.00 0.00 0.00 0.00 0.00 0.01 0.02 0.04 0.04 0.02 0.01
0.00 0.00 0.00 0.00 0.00 0.00 0.00 0.00 0.00 0.00 0.00 0.00 0.00 0.00 0.00 0.00 0.00 0.00 0.00 0.00 0.00 0.00 0.00 0.00 0.00 0.00 0.00 0.00 0.00 0.00 0.00 0.00 0.00 0.00 0.00 0.00 0.00 0.00 0.00 0.00 0.01 0.01 0.01
0.00 0.00 0.00 0.00 0.00 0.00 0.00 0.00 0.00 0.00 0.00 0.00 0.00 0.00 0.00 0.00 0.00 0.00 0.00 0.00 0.00 0.00 0.00 0.00 0.00 0.00 0.00 0.00 0.00 0.00 0.00 0.00 0.00 0.00 0.00 0.00 0.00 0.00 0.00 0.00 0.00 0.00 0.00
0.00 0.00 0.00 0.00 0.00 0.00 0.00 0.00 0.00 0.00 0.00 0.00 0.00 0.00 0.00 0.00 0.00 0.00 0.00 0.00 0.00 0.00 0.00 0.00 0.00 0.00 0.00 0.00 0.00 0.00 0.00 0.00 0.00 0.00 0.00 0.00 0.00 0.00 0.00 0.00 0.00 0.00 0.00
0.00 0.00 0.00 0.00 0.00 0.00 0.00 0.00 0.00 0.00 0.00 0.00 0.00 0.00 0.00 0.00 0.00 0.00 0.00 0.00 0.00 0.00 0.00 0.00 0.00 0.00 0.00 0.00 0.00 0.00 0.00 0.00 0.00 0.00 0.00 0.00 0.00 0.00 0.00 0.00 0.00 0.00 0.00
0.00 0.00 0.00 0.00 0.00 0.00 0.00 0.00 0.00 0.00 0.00 0.00 0.00 0.00 0.00 0.00 0.00 0.00 0.00 0.00 0.00 0.00 0.00 0.00 0.00 0.00 0.00 0.00 0.00 0.01 0.02 0.02 0.01 0.00 0.00 0.00 0.01 0.01 0.01 0.01 0.00 0.00 0.00
0.00 0.00 0.00 0.00 0.00 0.00 0.00 0.00 0.00 0.00 0.00 0.00 0.00 0.00 0.00 0.00 0.00 0.00 0.00 0.00 0.00 0.00 0.00 0.00 0.00 0.00 0.00 0.00 0.01 0.01 0.01 0.03 0.03 0.01 0.02 0.03 0.03 0.04 0.02 0.02 0.01 0.00 0.00
0.00 0.00 0.00 0.00 0.00 0.00 0.00 0.00 0.00 0.00 0.00 0.00 0.00 0.00 0.00 0.00 0.00 0.00 0.00 0.00 0.00 0.00 0.00 0.00 0.00 0.00 0.00 0.00 0.00 0.00 0.01 0.02 0.03 0.04 0.04 0.07 0.06 0.08 0.07 0.07 0.05 0.02 0.00
0.00 0.00 0.00 0.00 0.00 0.00 0.00 0.00 0.00 0.00 0.00 0.00 0.00 0.00 0.00 0.00 0.00 0.00 0.00 0.00 0.00 0.00 0.00 0.00 0.00 0.00 0.00 0.00 0.00 0.00 0.01 0.02 0.05 0.11 0.08 0.10 0.09 0.08 0.08 0.05 0.05 0.05 0.02
0.00 0.00 0.00 0.00 0.00 0.00 0.00 0.00 0.00 0.00 0.00 0.00 0.00 0.00 0.00 0.00 0.00 0.00 0.00 0.00 0.00 0.00 0.00 0.00 0.00 0.00 0.00 0.00 0.00 0.01 0.01 0.03 0.06 0.11 0.07 0.04 0.06 0.07 0.08 0.09 0.10 0.09 0.06

GFSMW_prec_precacc6_093.txt.gz
Total_Precipitation_Accumulation
0.00 0.02 0.05 0.08 0.07 0.04 0.02 0.02 0.01 0.01 0.01 0.02 0.03 0.12 0.17 0.13 0.34 0.20 0.18 0.13 0.04 0.02 0.02 0.03 0.03 0.04 0.01 0.00 0.00 0.00 0.00 0.00 0.00 0.00 0.00 0.00 0.00 0.00 0.00 0.00 0.00 0.00 0.00
0.04 0.06 0.08 0.10 0.11 0.05 0.03 0.02 0.01 0.01 0.02 0.03 0.02 0.05 0.13 0.26 0.44 0.49 0.31 0.34 0.20 0.09 0.04 0.03 0.02 0.01 0.00 0.00 0.00 0.01 0.00 0.00 0.00 0.00 0.00 0.00 0.00 0.00 0.00 0.00 0.00 0.00 0.00
0.05 0.03 0.06 0.10 0.08 0.05 0.01 0.01 0.01 0.03 0.09 0.09 0.05 0.04 0.07 0.15 0.52 0.79 0.53 0.42 0.45 0.40 0.27 0.16 0.09 0.04 0.02 0.04 0.04 0.07 0.08 0.09 0.05 0.02 0.00 0.00 0.00 0.01 0.01 0.01 0.00 0.00 0.00
0.02 0.04 0.11 0.07 0.07 0.04 0.01 0.01 0.10 0.27 0.15 0.08 0.35 0.29 0.11 0.10 0.16 0.69 0.73 0.43 0.38 0.37 0.37 0.35 0.34 0.31 0.26 0.23 0.20 0.17 0.17 0.18 0.17 0.17 0.11 0.06 0.04 0.02 0.01 0.02 0.01 0.01 0.00
0.02 0.02 0.10 0.11 0.03 0.04 0.02 0.03 0.08 0.41 0.61 0.31 0.72 0.92 0.62 0.31 0.21 0.38 0.73 0.56 0.55 0.41 0.38 0.31 0.28 0.28 0.30 0.31 0.29 0.25 0.24 0.20 0.15 0.11 0.10 0.09 0.06 0.06 0.04 0.05 0.06 0.05 0.03
0.03 0.03 0.03 0.04 0.02 0.01 0.04 0.07 0.14 0.37 0.83 0.87 0.88 0.98 1.01 0.95 0.64 0.61 0.84 0.63 0.56 0.58 0.47 0.37 0.28 0.25 0.27 0.25 0.24 0.23 0.16 0.15 0.13 0.09 0.06 0.04 0.03 0.01 0.03 0.06 0.08 0.09 0.07
0.10 0.19 0.20 0.27 0.25 0.21 0.14 0.23 0.18 0.25 0.36 0.62 0.67 0.47 0.43 0.56 0.88 0.76 0.79 0.83 0.63 0.49 0.57 0.41 0.33 0.28 0.25 0.24 0.21 0.19 0.15 0.15 0.11 0.11 0.09 0.09 0.08 0.05 0.04 0.03 0.04 0.08 0.07
0.31 0.31 0.50 0.50 0.55 0.35 0.23 0.18 0.16 0.17 0.15 0.18 0.27 0.32 0.30 0.38 0.43 0.40 0.45 0.40 0.38 0.32 0.30 0.25 0.19 0.18 0.18 0.18 0.17 0.14 0.13 0.10 0.09 0.12 0.15 0.15 0.12 0.11 0.08 0.09 0.13 0.16 0.15
0.49 0.43 0.39 0.52 0.45 0.26 0.18 0.12 0.09 0.10 0.05 0.03 0.07 0.11 0.09 0.11 0.17 0.21 0.19 0.21 0.37 0.43 0.39 0.30 0.24 0.25 0.19 0.13 0.11 0.10 0.09 0.09 0.08 0.07 0.07 0.10 0.15 0.19 0.15 0.13 0.21 0.32 0.33
0.47 0.47 0.39 0.39 0.25 0.09 0.03 0.00 0.00 0.00 0.00 0.00 0.00 0.00 0.00 0.01 0.04 0.06 0.06 0.06 0.11 0.18 0.23 0.27 0.24 0.25 0.33 0.30 0.25 0.19 0.19 0.13 0.09 0.09 0.09 0.11 0.13 0.15 0.13 0.15 0.16 0.06 0.03
0.35 0.28 0.23 0.15 0.04 0.00 0.00 0.00 0.00 0.00 0.00 0.00 0.00 0.00 0.00 0.00 0.00 0.00 0.00 0.00 0.00 0.00 0.01 0.02 0.03 0.03 0.04 0.12 0.17 0.12 0.10 0.08 0.08 0.09 0.08 0.09 0.24 0.31 0.26 0.21 0.16 0.12 0.04
0.15 0.09 0.04 0.02 0.00 0.00 0.00 0.00 0.00 0.00 0.00 0.00 0.00 0.00 0.00 0.00 0.00 0.00 0.00 0.00 0.00 0.00 0.00 0.00 0.00 0.00 0.00 0.00 0.00 0.00 0.01 0.01 0.02 0.04 0.04 0.05 0.10 0.17 0.21 0.20 0.13 0.14 0.22
0.00 0.00 0.00 0.00 0.00 0.00 0.00 0.00 0.00 0.00 0.00 0.00 0.00 0.00 0.00 0.00 0.00 0.00 0.00 0.00 0.00 0.00 0.00 0.00 0.00 0.00 0.00 0.00 0.00 0.00 0.00 0.00 0.01 0.02 0.03 0.07 0.07 0.07 0.07 0.07 0.11 0.11 0.07
0.00 0.00 0.00 0.00 0.00 0.00 0.00 0.00 0.00 0.00 0.00 0.00 0.00 0.00 0.00 0.00 0.00 0.00 0.00 0.00 0.00 0.00 0.00 0.00 0.00 0.00 0.00 0.00 0.00 0.00 0.01 0.01 0.01 0.03 0.03 0.05 0.05 0.05 0.09 0.14 0.16 0.19 0.15
0.00 0.00 0.00 0.00 0.00 0.00 0.00 0.00 0.00 0.00 0.00 0.00 0.00 0.00 0.00 0.00 0.00 0.00 0.00 0.00 0.00 0.00 0.00 0.00 0.00 0.00 0.00 0.00 0.00 0.00 0.00 0.01 0.00 0.01 0.03 0.04 0.06 0.07 0.08 0.08 0.07 0.10 0.11
0.00 0.00 0.00 0.00 0.00 0.00 0.00 0.00 0.00 0.00 0.00 0.00 0.00 0.00 0.00 0.00 0.00 0.00 0.00 0.00 0.00 0.00 0.00 0.00 0.00 0.00 0.00 0.00 0.00 0.00 0.00 0.00 0.00 0.00 0.02 0.03 0.07 0.04 0.06 0.05 0.05 0.05 0.02
0.00 0.00 0.00 0.00 0.00 0.00 0.00 0.00 0.00 0.00 0.00 0.00 0.00 0.00 0.00 0.00 0.00 0.00 0.00 0.00 0.00 0.00 0.00 0.00 0.00 0.00 0.00 0.00 0.00 0.00 0.00 0.00 0.00 0.00 0.00 0.00 0.00 0.02 0.03 0.08 0.09 0.07 0.04
0.00 0.00 0.00 0.00 0.00 0.00 0.00 0.00 0.00 0.00 0.00 0.00 0.00 0.00 0.00 0.00 0.00 0.00 0.00 0.00 0.00 0.00 0.00 0.00 0.00 0.00 0.00 0.00 0.00 0.00 0.00 0.00 0.00 0.00 0.00 0.00 0.00 0.00 0.00 0.00 0.01 0.03 0.06
0.00 0.00 0.00 0.00 0.00 0.00 0.00 0.00 0.00 0.00 0.00 0.00 0.00 0.00 0.00 0.00 0.00 0.00 0.00 0.00 0.00 0.00 0.00 0.00 0.00 0.00 0.00 0.00 0.00 0.00 0.00 0.00 0.00 0.00 0.00 0.00 0.00 0.00 0.00 0.00 0.00 0.00 0.00
0.00 0.00 0.00 0.00 0.00 0.00 0.00 0.00 0.00 0.00 0.00 0.00 0.00 0.00 0.00 0.00 0.00 0.00 0.00 0.00 0.00 0.00 0.00 0.00 0.00 0.00 0.00 0.00 0.00 0.00 0.00 0.00 0.00 0.00 0.00 0.00 0.00 0.00 0.00 0.00 0.00 0.00 0.00
0.00 0.00 0.00 0.00 0.00 0.00 0.00 0.00 0.00 0.00 0.00 0.00 0.00 0.00 0.00 0.00 0.00 0.00 0.00 0.00 0.00 0.00 0.00 0.00 0.00 0.00 0.00 0.00 0.00 0.00 0.00 0.00 0.01 0.01 0.00 0.00 0.01 0.01 0.00 0.00 0.00 0.00 0.00
0.00 0.00 0.00 0.00 0.00 0.00 0.00 0.00 0.00 0.00 0.00 0.00 0.00 0.00 0.00 0.00 0.00 0.00 0.00 0.00 0.00 0.00 0.00 0.00 0.00 0.00 0.00 0.00 0.00 0.00 0.00 0.01 0.01 0.01 0.00 0.00 0.02 0.02 0.01 0.01 0.01 0.01 0.01
0.00 0.00 0.00 0.00 0.00 0.00 0.00 0.00 0.00 0.00 0.00 0.00 0.00 0.00 0.00 0.00 0.00 0.00 0.00 0.00 0.00 0.00 0.00 0.00 0.00 0.00 0.00 0.00 0.00 0.00 0.00 0.00 0.00 0.00 0.02 0.02 0.03 0.03 0.02 0.03 0.04 0.03 0.02
0.00 0.00 0.00 0.00 0.00 0.00 0.00 0.00 0.00 0.00 0.00 0.00 0.00 0.00 0.00 0.00 0.00 0.00 0.00 0.00 0.00 0.00 0.00 0.00 0.00 0.00 0.00 0.00 0.00 0.00 0.00 0.00 0.00 0.01 0.02 0.02 0.03 0.04 0.05 0.06 0.07 0.05 0.03
0.00 0.00 0.00 0.00 0.00 0.00 0.00 0.00 0.00 0.00 0.00 0.00 0.00 0.00 0.00 0.00 0.00 0.00 0.00 0.00 0.00 0.00 0.00 0.00 0.00 0.00 0.00 0.00 0.00 0.00 0.00 0.00 0.00 0.01 0.01 0.02 0.04 0.05 0.07 0.08 0.07 0.12 0.08
0.00 0.00 0.00 0.00 0.00 0.00 0.00 0.00 0.00 0.00 0.00 0.00 0.00 0.00 0.00 0.00 0.00 0.00 0.00 0.00 0.00 0.00 0.00 0.00 0.00 0.00 0.00 0.00 0.00 0.00 0.00 0.00 0.01 0.01 0.01 0.01 0.02 0.04 0.05 0.08 0.13 0.15 0.13

GFSMW_prec_precacc6_096.txt.gz
Total_Precipitation_Accumulation
0.00 0.00 0.00 0.03 0.04 0.02 0.01 0.01 0.00 0.00 0.00 0.00 0.00 0.00 0.03 0.05 0.03 0.02 0.08 0.10 0.04 0.02 0.04 0.08 0.09 0.11 0.04 0.04 0.06 0.04 0.02 0.00 0.00 0.00 0.00 0.00 0.00 0.00 0.00 0.00 0.00 0.00 0.00
0.01 0.00 0.02 0.04 0.06 0.05 0.03 0.02 0.01 0.00 0.00 0.00 0.00 0.00 0.02 0.07 0.10 0.06 0.05 0.12 0.26 0.26 0.13 0.09 0.08 0.06 0.05 0.02 0.01 0.02 0.02 0.00 0.00 0.00 0.00 0.00 0.00 0.00 0.00 0.00 0.00 0.00 0.00
0.09 0.07 0.05 0.02 0.02 0.02 0.04 0.02 0.01 0.00 0.00 0.00 0.00 0.00 0.01 0.04 0.17 0.19 0.12 0.05 0.07 0.21 0.37 0.34 0.24 0.13 0.05 0.03 0.02 0.01 0.01 0.00 0.00 0.00 0.00 0.00 0.00 0.00 0.00 0.00 0.00 0.00 0.00
0.07 0.07 0.06 0.03 0.03 0.01 0.01 0.01 0.01 0.01 0.00 0.00 0.01 0.02 0.03 0.03 0.09 0.40 0.45 0.19 0.10 0.11 0.18 0.22 0.38 0.39 0.24 0.12 0.09 0.09 0.07 0.07 0.06 0.05 0.05 0.03 0.02 0.01 0.00 0.00 0.00 0.00 0.00
0.05 0.05 0.04 0.03 0.02 0.03 0.02 0.01 0.03 0.02 0.02 0.04 0.10 0.33 0.24 0.12 0.10 0.26 0.66 0.68 0.49 0.26 0.23 0.28 0.33 0.40 0.39 0.39 0.31 0.23 0.21 0.21 0.18 0.14 0.09 0.06 0.05 0.03 0.01 0.00 0.00 0.00 0.00
0.01 0.01 0.02 0.03 0.02 0.01 0.03 0.03 0.05 0.10 0.12 0.33 0.33 0.55 0.62 0.62 0.49 0.52 0.78 0.80 0.64 0.62 0.46 0.41 0.37 0.35 0.35 0.37 0.41 0.33 0.24 0.24 0.25 0.23 0.18 0.12 0.11 0.06 0.05 0.02 0.00 0.00 0.00
0.02 0.06 0.14 0.14 0.16 0.14 0.07 0.13 0.08 0.02 0.11 0.37 0.53 0.33 0.31 0.54 0.82 0.79 0.93 1.21 1.25 0.95 0.80 0.62 0.51 0.42 0.34 0.32 0.29 0.29 0.24 0.22 0.20 0.20 0.19 0.18 0.14 0.09 0.07 0.06 0.03 0.01 0.00
0.04 0.15 0.40 0.46 0.49 0.38 0.40 0.23 0.22 0.12 0.10 0.10 0.14 0.18 0.18 0.25 0.32 0.36 0.57 0.71 0.80 0.90 0.74 0.55 0.44 0.35 0.33 0.31 0.30 0.25 0.28 0.27 0.25 0.22 0.21 0.19 0.16 0.14 0.12 0.10 0.10 0.11 0.08
0.20 0.27 0.37 0.54 0.49 0.39 0.37 0.27 0.16 0.15 0.05 0.03 0.06 0.11 0.13 0.10 0.13 0.20 0.24 0.29 0.50 0.58 0.58 0.49 0.41 0.33 0.27 0.23 0.22 0.21 0.17 0.22 0.27 0.20 0.16 0.14 0.09 0.12 0.17 0.16 0.20 0.30 0.38
0.35 0.42 0.43 0.40 0.33 0.18 0.09 0.05 0.02 0.01 0.00 0.00 0.00 0.00 0.00 0.01 0.03 0.03 0.05 0.07 0.11 0.19 0.28 0.30 0.27 0.28 0.37 0.47 0.42 0.31 0.25 0.24 0.19 0.17 0.16 0.15 0.13 0.14 0.19 0.19 0.18 0.19 0.18
0.33 0.37 0.32 0.19 0.05 0.01 0.00 0.00 0.00 0.00 0.00 0.00 0.00 0.00 0.00 0.00 0.00 0.00 0.00 0.00 0.00 0.00 0.01 0.02 0.04 0.05 0.08 0.18 0.30 0.35 0.32 0.28 0.25 0.27 0.31 0.28 0.27 0.28 0.34 0.32 0.31 0.35 0.26
0.23 0.18 0.10 0.02 0.00 0.00 0.00 0.00 0.00 0.00 0.00 0.00 0.00 0.00 0.00 0.00 0.00 0.00 0.00 0.00 0.00 0.00 0.00 0.00 0.00 0.00 0.00 0.00 0.00 0.01 0.01 0.02 0.03 0.04 0.06 0.09 0.11 0.10 0.13 0.26 0.24 0.27 0.41
0.00 0.00 0.00 0.00 0.00 0.00 0.00 0.00 0.00 0.00 0.00 0.00 0.00 0.00 0.00 0.00 0.00 0.00 0.00 0.00 0.00 0.00 0.00 0.00 0.00 0.00 0.00 0.00 0.00 0.00 0.00 0.00 0.00 0.01 0.01 0.01 0.02 0.02 0.04 0.08 0.15 0.16 0.16
0.00 0.00 0.00 0.00 0.00 0.00 0.00 0.00 0.00 0.00 0.00 0.00 0.00 0.00 0.00 0.00 0.00 0.00 0.00 0.00 0.00 0.00 0.00 0.00 0.00 0.00 0.00 0.00 0.00 0.00 0.00 0.00 0.00 0.00 0.00 0.00 0.01 0.01 0.04 0.12 0.17 0.21 0.22
0.00 0.00 0.00 0.00 0.00 0.00 0.00 0.00 0.00 0.00 0.00 0.00 0.00 0.00 0.00 0.00 0.00 0.00 0.00 0.00 0.00 0.00 0.00 0.00 0.00 0.00 0.00 0.00 0.00 0.00 0.00 0.00 0.00 0.00 0.00 0.00 0.03 0.05 0.05 0.08 0.08 0.12 0.16
0.00 0.00 0.00 0.00 0.00 0.00 0.00 0.00 0.00 0.00 0.00 0.00 0.00 0.00 0.00 0.00 0.00 0.00 0.00 0.00 0.00 0.00 0.00 0.00 0.00 0.00 0.00 0.00 0.00 0.00 0.00 0.00 0.00 0.00 0.00 0.00 0.02 0.02 0.05 0.06 0.08 0.08 0.07
0.00 0.00 0.00 0.00 0.00 0.00 0.00 0.00 0.00 0.00 0.00 0.00 0.00 0.00 0.00 0.00 0.00 0.00 0.00 0.00 0.00 0.00 0.00 0.00 0.00 0.00 0.00 0.00 0.00 0.00 0.00 0.00 0.00 0.00 0.00 0.00 0.00 0.01 0.01 0.06 0.09 0.09 0.11
0.00 0.00 0.00 0.00 0.00 0.00 0.00 0.00 0.00 0.00 0.00 0.00 0.00 0.00 0.00 0.00 0.00 0.00 0.00 0.00 0.00 0.00 0.00 0.00 0.00 0.00 0.00 0.00 0.00 0.00 0.00 0.00 0.00 0.00 0.00 0.00 0.00 0.00 0.00 0.00 0.01 0.02 0.08
0.00 0.00 0.00 0.00 0.00 0.00 0.00 0.00 0.00 0.00 0.00 0.00 0.00 0.00 0.00 0.00 0.00 0.00 0.00 0.00 0.00 0.00 0.00 0.00 0.00 0.00 0.00 0.00 0.00 0.00 0.00 0.00 0.00 0.00 0.00 0.00 0.00 0.00 0.00 0.00 0.00 0.00 0.01
0.00 0.00 0.00 0.00 0.00 0.00 0.00 0.00 0.00 0.00 0.00 0.00 0.00 0.00 0.00 0.00 0.00 0.00 0.00 0.00 0.00 0.00 0.00 0.00 0.00 0.00 0.00 0.00 0.00 0.00 0.00 0.00 0.00 0.00 0.00 0.00 0.00 0.00 0.00 0.00 0.00 0.00 0.00
0.00 0.00 0.00 0.00 0.00 0.00 0.00 0.00 0.00 0.00 0.00 0.00 0.00 0.00 0.00 0.00 0.00 0.00 0.00 0.00 0.00 0.00 0.00 0.00 0.00 0.00 0.00 0.00 0.00 0.00 0.00 0.00 0.01 0.01 0.00 0.00 0.01 0.01 0.01 0.01 0.01 0.00 0.00
0.00 0.00 0.00 0.00 0.00 0.00 0.00 0.00 0.00 0.00 0.00 0.00 0.00 0.00 0.00 0.00 0.00 0.00 0.00 0.00 0.00 0.00 0.00 0.00 0.00 0.00 0.00 0.00 0.00 0.00 0.00 0.00 0.00 0.01 0.00 0.01 0.01 0.01 0.01 0.02 0.03 0.03 0.03
0.00 0.00 0.00 0.00 0.00 0.00 0.00 0.00 0.00 0.00 0.00 0.00 0.00 0.00 0.00 0.00 0.00 0.00 0.00 0.00 0.00 0.00 0.00 0.00 0.00 0.00 0.00 0.00 0.00 0.00 0.00 0.00 0.00 0.00 0.01 0.01 0.01 0.01 0.01 0.02 0.05 0.05 0.04
0.00 0.00 0.00 0.00 0.00 0.00 0.00 0.00 0.00 0.00 0.00 0.00 0.00 0.00 0.00 0.00 0.00 0.00 0.00 0.00 0.00 0.00 0.00 0.00 0.00 0.00 0.00 0.00 0.00 0.00 0.00 0.00 0.00 0.00 0.00 0.00 0.00 0.01 0.01 0.03 0.04 0.06 0.05
0.00 0.00 0.00 0.00 0.00 0.00 0.00 0.00 0.00 0.00 0.00 0.00 0.00 0.00 0.00 0.00 0.00 0.00 0.00 0.00 0.00 0.00 0.00 0.00 0.00 0.00 0.00 0.00 0.00 0.00 0.00 0.00 0.00 0.00 0.00 0.00 0.00 0.00 0.01 0.04 0.05 0.09 0.11
0.00 0.00 0.00 0.00 0.00 0.00 0.00 0.00 0.00 0.00 0.00 0.00 0.00 0.00 0.00 0.00 0.00 0.00 0.00 0.00 0.00 0.00 0.00 0.00 0.00 0.00 0.00 0.00 0.00 0.00 0.00 0.00 0.00 0.00 0.00 0.00 0.00 0.00 0.00 0.02 0.05 0.10 0.15